FW4287 Weather Reports


Display with metric or nautical units.
time (UTC)temp
F
wind
direction
speed
MPH
gust
MPH
rain 1hr
in
rain 24hr
in
rain mn
in
humidity
%
barometer
mb
20260831230032 81 358 9.0 15.0 0.00 0.00 0.00 26 1010.5
20260831224604 81 13 8.0 14.0 0.00 0.00 0.00 26 1010.8
20260831221607 80 4 8.0 15.0 0.00 0.00 0.00 28 1011.1
20260831220030 79 359 8.0 16.0 0.00 0.00 0.00 29 1011.3
20260831214536 79 11 8.0 14.0 0.00 0.00 0.00 30 1011.6
20260831213105 78 15 10.0 18.0 0.00 0.00 0.00 31 1011.8
20260831211532 78 18 8.0 18.0 0.00 0.00 0.00 31 1011.9
20260831210031 78 25 9.0 18.0 0.00 0.00 0.00 32 1012.1
20260831204535 77 22 8.0 19.0 0.00 0.00 0.00 33 1012.2
20260831203031 77 351 9.0 15.0 0.00 0.00 0.00 33 1012.4
20260831201652 76 353 7.0 18.0 0.00 0.00 0.00 33 1012.7
20260831200030 76 15 8.0 15.0 0.00 0.00 0.00 34 1012.9
20260831194532 75 3 9.0 17.0 0.00 0.00 0.00 35 1013.1
20260831193031 74 18 9.0 16.0 0.00 0.00 0.00 35 1013.3
20260831191532 74 351 7.0 14.0 0.00 0.00 0.00 36 1013.6
20260831190146 73 359 7.0 15.0 0.00 0.00 0.00 38 1013.8
20260831184537 71 325 7.0 16.0 0.00 0.00 0.00 45 1014.1
20260831181609 69 297 10.0 16.0 0.00 0.00 0.00 47 1014.5
20260831180035 68 316 8.0 15.0 0.00 0.00 0.00 49 1014.7
20260831174535 67 310 6.0 19.0 0.00 0.00 0.00 52 1014.8
20260831173032 66 321 5.0 10.0 0.00 0.00 0.00 55 1014.9
20260831171532 64 292 4.0 8.0 0.00 0.00 0.00 59 1015.1
20260831170032 63 288 4.0 7.0 0.00 0.00 0.00 61 1015.3
20260831164532 62 290 4.0 6.0 0.00 0.00 0.00 61 1015.5
20260831163106 62 290 4.0 6.0 0.00 0.00 0.00 61 1015.6
20260831161530 62 304 2.0 5.0 0.00 0.00 0.00 60 1015.8
20260831160028 63 78 0.0 2.0 0.00 0.00 0.00 63 1015.9
20260831154528 59 90 0.0 0.0 0.00 0.00 0.00 70 1015.9
20260831153032 57 90 0.0 0.0 0.00 0.00 0.00 78 1015.9
20260831151530 55 90 0.0 0.0 0.00 0.00 0.00 89 1015.9
20260831144529 46 90 0.0 0.0 0.00 0.00 0.00 95 1015.7
20260831143028 43 90 0.0 0.0 0.00 0.00 0.00 96 1015.6
20260831141608 42 90 0.0 0.0 0.00 0.00 0.00 95 1015.5
20260831140032 41 90 0.0 0.0 0.00 0.00 0.00 95 1015.4
20260831134533 41 90 0.0 0.0 0.00 0.00 0.00 95 1015.4
20260831133032 41 90 0.0 0.0 0.00 0.00 0.00 94 1015.3
20260831130027 41 90 0.0 0.0 0.00 0.00 0.00 94 1015.4
20260831124536 42 90 0.0 0.0 0.00 0.00 0.00 94 1015.4
20260831120027 42 90 0.0 0.0 0.00 0.00 0.00 92 1015.4
20260831114531 43 90 0.0 0.0 0.00 0.00 0.00 90 1015.4
20260831111531 43 90 0.0 0.0 0.00 0.00 0.00 90 1015.5
20260831110030 43 90 0.0 0.0 0.00 0.00 0.00 89 1015.5
20260831104530 44 90 0.0 0.0 0.00 0.00 0.00 89 1015.6
20260831103032 44 90 0.0 0.0 0.00 0.00 0.00 88 1015.6
20260831101529 44 90 0.0 0.0 0.00 0.00 0.00 88 1015.6
20260831094537 45 90 0.0 0.0 0.00 0.00 0.00 85 1015.9
20260831091532 45 90 0.0 0.0 0.00 0.00 0.00 85 1016.2
20260831090038 45 90 0.0 0.0 0.00 0.00 0.00 86 1016.2
20260831084528 46 90 0.0 0.0 0.00 0.00 0.00 85 1016.2
20260831083032 46 90 0.0 0.0 0.00 0.00 0.00 84 1016.4
20260831081606 46 90 0.0 0.0 0.00 0.00 0.00 83 1016.6
20260831080030 47 90 0.0 0.0 0.00 0.00 0.00 81 1016.7
20260831074534 48 90 0.0 0.0 0.00 0.00 0.00 80 1016.7
20260831073031 48 90 0.0 0.0 0.00 0.00 0.00 78 1016.7
20260831071650 49 90 0.0 2.0 0.00 0.00 0.00 78 1016.8
20260831070031 49 90 0.0 0.0 0.00 0.00 0.00 77 1016.9
20260831064532 49 90 0.0 0.0 0.00 0.00 0.00 76 1016.9
20260831063033 50 90 0.0 0.0 0.00 0.00 0.00 77 1017.0
20260831061531 50 90 0.0 0.0 0.00 0.00 0.00 74 1017.1
20260831060146 52 90 0.0 0.0 0.00 0.00 0.00 71 1017.2
20260831054530 52 90 0.0 0.0 0.00 0.00 0.00 70 1017.3
20260831053029 53 116 1.0 4.0 0.00 0.00 0.00 69 1017.4
20260831051607 53 112 0.0 0.0 0.00 0.00 0.00 69 1017.5
20260831050030 54 112 0.0 0.0 0.00 0.00 0.00 66 1017.5
20260831044538 56 112 0.0 0.0 0.00 0.00 0.00 62 1017.5
20260831041542 60 162 0.0 4.0 0.00 0.00 0.00 55 1017.6
20260831034528 63 143 4.0 9.0 0.00 0.00 0.00 52 1017.4
20260831031536 65 141 4.0 7.0 0.00 0.00 0.00 49 1017.2
20260831030029 65 153 5.0 10.0 0.00 0.00 0.00 48 1017.1
20260831024530 66 163 4.0 8.0 0.00 0.00 0.00 47 1017.2
20260831023151 68 177 4.0 7.0 0.00 0.00 0.00 44 1017.1
20260831021531 70 220 3.0 5.0 0.00 0.00 0.00 43 1017.0
20260831020033 71 288 5.0 8.0 0.00 0.00 0.00 41 1017.0
20260831011530 72 315 5.0 10.0 0.00 0.00 0.00 39 1017.2
20260831010031 73 305 4.0 8.0 0.00 0.00 0.00 38 1017.2
20260831004537 73 302 4.0 9.0 0.00 0.00 0.00 37 1017.2
20260831001605 72 312 5.0 10.0 0.00 0.00 0.00 37 1017.3
20260831000032 72 337 6.0 15.0 0.00 0.00 0.00 36 1017.4
20260830234531 72 349 6.0 13.0 0.00 0.00 0.00 37 1017.5
20260830233104 71 305 5.0 10.0 0.00 0.00 0.00 38 1017.7
20260830231532 71 355 6.0 12.0 0.00 0.00 0.00 41 1017.8